| time (UTC) | temp C | wind direction | speed KPH | gust KPH | rain 1hr cm | rain 24hr cm | rain mn cm | humidity % | barometer mb |
| 20260906215028 | 32 | 334 | 1.6 | 12.9 | 0.00 | 0.00 | 0.00 | 35 | 1002.5 |
| 20260906214528 | 32 | 24 | 6.4 | 12.9 | 0.00 | 0.00 | 0.00 | 36 | 1002.5 |
| 20260906214027 | 32 | 26 | 0.0 | 8.0 | 0.00 | 0.00 | 0.00 | 36 | 1002.5 |
| 20260906213526 | 32 | 246 | 1.6 | 8.0 | 0.00 | 0.00 | 0.00 | 37 | 1002.7 |
| 20260906213024 | 31 | 244 | 1.6 | 6.4 | 0.00 | 0.00 | 0.00 | 39 | 1002.9 |
| 20260906212522 | 31 | 37 | 1.6 | 6.4 | 0.00 | 0.00 | 0.00 | 39 | 1003.0 |
| 20260906212022 | 30 | 342 | 1.6 | 8.0 | 0.00 | 0.00 | 0.00 | 40 | 1003.2 |
| 20260906211521 | 30 | 45 | 0.0 | 8.0 | 0.00 | 0.00 | 0.00 | 38 | 1003.3 |
| 20260906211026 | 30 | 28 | 1.6 | 6.4 | 0.00 | 0.00 | 0.00 | 40 | 1003.4 |
| 20260906210520 | 29 | 159 | 1.6 | 6.4 | 0.00 | 0.00 | 0.00 | 44 | 1003.5 |
| 20260906210019 | 29 | 9 | 1.6 | 6.4 | 0.00 | 0.00 | 0.00 | 42 | 1003.6 |
| 20260906205522 | 29 | 9 | 1.6 | 4.8 | 0.00 | 0.00 | 0.00 | 42 | 1003.7 |
| 20260906205019 | 29 | 22 | 0.0 | 12.9 | 0.00 | 0.00 | 0.00 | 41 | 1003.8 |
| 20260906204518 | 29 | 9 | 6.4 | 12.9 | 0.00 | 0.00 | 0.00 | 39 | 1003.8 |
| 20260906204017 | 30 | 11 | 4.8 | 9.7 | 0.00 | 0.00 | 0.00 | 40 | 1003.9 |
| 20260906203517 | 30 | 349 | 1.6 | 4.8 | 0.00 | 0.00 | 0.00 | 38 | 1003.9 |
| 20260906203016 | 31 | 344 | 1.6 | 4.8 | 0.00 | 0.00 | 0.00 | 38 | 1003.9 |
| 20260906202515 | 30 | 238 | 0.0 | 9.7 | 0.00 | 0.00 | 0.00 | 40 | 1003.9 |
| 20260906202015 | 30 | 202 | 0.0 | 11.3 | 0.00 | 0.00 | 0.00 | 43 | 1004.0 |
| 20260906201515 | 30 | 360 | 3.2 | 11.3 | 0.00 | 0.00 | 0.00 | 37 | 1004.0 |
| 20260906201016 | 31 | 69 | 6.4 | 9.7 | 0.00 | 0.00 | 0.00 | 36 | 1004.0 |
| 20260906200513 | 31 | 20 | 1.6 | 9.7 | 0.00 | 0.00 | 0.00 | 37 | 1004.1 |
| 20260906200013 | 31 | 310 | 3.2 | 9.7 | 0.00 | 0.00 | 0.00 | 36 | 1004.2 |
| 20260906195511 | 30 | 234 | 1.6 | 16.1 | 0.00 | 0.00 | 0.00 | 40 | 1004.1 |
| 20260906195011 | 30 | 38 | 3.2 | 14.5 | 0.00 | 0.00 | 0.00 | 38 | 1004.2 |
| 20260906194510 | 31 | 74 | 3.2 | 8.0 | 0.00 | 0.00 | 0.00 | 38 | 1004.2 |
| 20260906194013 | 30 | 5 | 1.6 | 9.7 | 0.00 | 0.00 | 0.00 | 38 | 1004.3 |
| 20260906193509 | 30 | 221 | 3.2 | 12.9 | 0.00 | 0.00 | 0.00 | 38 | 1004.4 |
| 20260906193009 | 30 | 35 | 4.8 | 12.9 | 0.00 | 0.00 | 0.00 | 38 | 1004.5 |
| 20260906192508 | 30 | 31 | 3.2 | 8.0 | 0.00 | 0.00 | 0.00 | 40 | 1004.5 |
| 20260906192008 | 30 | 28 | 3.2 | 9.7 | 0.00 | 0.00 | 0.00 | 40 | 1004.6 |
| 20260906191509 | 29 | 332 | 4.8 | 9.7 | 0.00 | 0.00 | 0.00 | 41 | 1004.6 |
| 20260906191006 | 29 | 21 | 3.2 | 8.0 | 0.00 | 0.00 | 0.00 | 40 | 1004.6 |
| 20260906190509 | 30 | 15 | 3.2 | 9.7 | 0.00 | 0.00 | 0.00 | 39 | 1004.7 |
| 20260906190005 | 30 | 33 | 1.6 | 8.0 | 0.00 | 0.00 | 0.00 | 41 | 1004.9 |
| 20260906185503 | 29 | 284 | 3.2 | 6.4 | 0.00 | 0.00 | 0.00 | 41 | 1005.0 |
| 20260906185002 | 28 | 226 | 1.6 | 8.0 | 0.00 | 0.00 | 0.00 | 43 | 1005.1 |
| 20260906184501 | 28 | 73 | 1.6 | 8.0 | 0.00 | 0.00 | 0.00 | 46 | 1005.2 |
| 20260906184105 | 28 | 355 | 3.2 | 12.9 | 0.00 | 0.00 | 0.00 | 44 | 1005.4 |
| 20260906183559 | 27 | 336 | 3.2 | 12.9 | 0.00 | 0.00 | 0.00 | 46 | 1005.4 |
| 20260906183058 | 27 | 228 | 1.6 | 8.0 | 0.00 | 0.00 | 0.00 | 52 | 1005.5 |
| 20260906182557 | 27 | 61 | 4.8 | 9.7 | 0.00 | 0.00 | 0.00 | 51 | 1005.5 |
| 20260906182056 | 27 | 74 | 3.2 | 12.9 | 0.00 | 0.00 | 0.00 | 50 | 1005.6 |
| 20260906181556 | 26 | 9 | 1.6 | 12.9 | 0.00 | 0.00 | 0.00 | 53 | 1005.6 |
| 20260906181054 | 26 | 122 | 3.2 | 9.7 | 0.00 | 0.00 | 0.00 | 51 | 1005.9 |
| 20260906180554 | 27 | 31 | 1.6 | 6.4 | 0.00 | 0.00 | 0.00 | 52 | 1006.0 |
| 20260906180054 | 27 | 38 | 0.0 | 6.4 | 0.00 | 0.00 | 0.00 | 51 | 1006.1 |
| 20260906175555 | 26 | 55 | 1.6 | 4.8 | 0.00 | 0.00 | 0.00 | 55 | 1006.3 |
| 20260906175052 | 26 | 49 | 1.6 | 6.4 | 0.00 | 0.00 | 0.00 | 56 | 1006.4 |
| 20260906174552 | 26 | 131 | 3.2 | 6.4 | 0.00 | 0.00 | 0.00 | 55 | 1006.5 |
| 20260906174051 | 26 | 34 | 3.2 | 4.8 | 0.00 | 0.00 | 0.00 | 57 | 1006.6 |
| 20260906173550 | 26 | 208 | 0.0 | 4.8 | 0.00 | 0.00 | 0.00 | 56 | 1006.6 |
| 20260906173057 | 26 | 5 | 0.0 | 4.8 | 0.00 | 0.00 | 0.00 | 59 | 1006.7 |
| 20260906172552 | 25 | 24 | 1.6 | 6.4 | 0.00 | 0.00 | 0.00 | 59 | 1006.6 |
| 20260906172051 | 25 | 230 | 1.6 | 6.4 | 0.00 | 0.00 | 0.00 | 60 | 1006.7 |
| 20260906171549 | 25 | 18 | 1.6 | 4.8 | 0.00 | 0.00 | 0.00 | 56 | 1006.9 |
| 20260906171047 | 25 | 249 | 3.2 | 6.4 | 0.00 | 0.00 | 0.00 | 60 | 1007.0 |
| 20260906170549 | 24 | 230 | 1.6 | 6.4 | 0.00 | 0.00 | 0.00 | 62 | 1007.0 |
| 20260906170046 | 23 | 228 | 1.6 | 4.8 | 0.00 | 0.00 | 0.00 | 63 | 1007.1 |
| 20260906165546 | 23 | 239 | 1.6 | 6.4 | 0.00 | 0.00 | 0.00 | 64 | 1007.2 |
| 20260906165049 | 23 | 64 | 1.6 | 6.4 | 0.00 | 0.00 | 0.00 | 62 | 1007.3 |
| 20260906164545 | 24 | 57 | 1.6 | 6.4 | 0.00 | 0.00 | 0.00 | 61 | 1007.2 |
| 20260906164045 | 24 | 219 | 1.6 | 4.8 | 0.00 | 0.00 | 0.00 | 63 | 1007.2 |
| 20260906163544 | 22 | 294 | 0.0 | 8.0 | 0.00 | 0.00 | 0.00 | 67 | 1007.3 |
| 20260906163045 | 23 | 250 | 3.2 | 8.0 | 0.00 | 0.00 | 0.00 | 65 | 1007.3 |
| 20260906162544 | 23 | 34 | 0.0 | 6.4 | 0.00 | 0.00 | 0.00 | 63 | 1007.1 |
| 20260906162043 | 23 | 94 | 1.6 | 6.4 | 0.00 | 0.00 | 0.00 | 65 | 1007.1 |
| 20260906161543 | 23 | 302 | 0.0 | 6.4 | 0.00 | 0.00 | 0.00 | 66 | 1007.1 |
| 20260906161042 | 23 | 24 | 1.6 | 8.0 | 0.00 | 0.00 | 0.00 | 65 | 1007.2 |
| 20260906160541 | 23 | 5 | 1.6 | 8.0 | 0.00 | 0.00 | 0.00 | 67 | 1007.0 |
| 20260906160040 | 22 | 12 | 1.6 | 6.4 | 0.00 | 0.00 | 0.00 | 69 | 1007.1 |
| 20260906155539 | 22 | 248 | 1.6 | 6.4 | 0.00 | 0.00 | 0.00 | 71 | 1007.1 |
| 20260906155038 | 22 | 360 | 3.2 | 4.8 | 0.00 | 0.00 | 0.00 | 68 | 1007.2 |
| 20260906154537 | 22 | 271 | 0.0 | 8.0 | 0.00 | 0.00 | 0.00 | 70 | 1007.3 |
| 20260906154036 | 21 | 240 | 3.2 | 8.0 | 0.00 | 0.00 | 0.00 | 70 | 1007.3 |
| 20260906153538 | 21 | 360 | 3.2 | 6.4 | 0.00 | 0.00 | 0.00 | 72 | 1007.3 |
| 20260906153036 | 21 | 46 | 3.2 | 11.3 | 0.00 | 0.00 | 0.00 | 72 | 1007.2 |
| 20260906152535 | 21 | 277 | 1.6 | 6.4 | 0.00 | 0.00 | 0.00 | 74 | 1007.3 |
| 20260906152035 | 20 | 9 | 1.6 | 9.7 | 0.00 | 0.00 | 0.00 | 76 | 1007.4 |
| 20260906151539 | 21 | 282 | 3.2 | 9.7 | 0.00 | 0.00 | 0.00 | 73 | 1007.5 |
| 20260906151034 | 21 | 193 | 1.6 | 6.4 | 0.00 | 0.00 | 0.00 | 74 | 1007.5 |
| 20260906150534 | 20 | 66 | 1.6 | 4.8 | 0.00 | 0.00 | 0.00 | 76 | 1007.5 |
| 20260906150033 | 20 | 243 | 1.6 | 4.8 | 0.00 | 0.00 | 0.00 | 79 | 1007.5 |
| 20260906145535 | 19 | 360 | 0.0 | 4.8 | 0.00 | 0.00 | 0.00 | 78 | 1007.6 |
| 20260906145032 | 20 | 10 | 1.6 | 6.4 | 0.00 | 0.00 | 0.00 | 78 | 1007.5 |
| 20260906144532 | 20 | 360 | 0.0 | 6.4 | 0.00 | 0.00 | 0.00 | 77 | 1007.6 |
| 20260906144034 | 20 | 326 | 0.0 | 6.4 | 0.00 | 0.00 | 0.00 | 78 | 1007.6 |
| 20260906143531 | 20 | 26 | 1.6 | 6.4 | 0.00 | 0.00 | 0.00 | 76 | 1007.6 |
| 20260906143130 | 20 | 9 | 1.6 | 6.4 | 0.00 | 0.00 | 0.00 | 78 | 1007.7 |
| 20260906142530 | 20 | 9 | 1.6 | 6.4 | 0.00 | 0.00 | 0.00 | 78 | 1007.7 |
| 20260906142030 | 19 | 248 | 0.0 | 4.8 | 0.00 | 0.00 | 0.00 | 80 | 1007.6 |
| 20260906141531 | 19 | 215 | 1.6 | 4.8 | 0.00 | 0.00 | 0.00 | 80 | 1007.6 |
| 20260906141029 | 19 | 219 | 1.6 | 4.8 | 0.00 | 0.00 | 0.00 | 79 | 1007.6 |
| 20260906140529 | 18 | 219 | 0.0 | 4.8 | 0.00 | 0.00 | 0.00 | 81 | 1007.7 |
| 20260906140029 | 18 | 242 | 0.0 | 4.8 | 0.00 | 0.00 | 0.00 | 81 | 1007.8 |
| 20260906135528 | 18 | 236 | 0.0 | 4.8 | 0.00 | 0.00 | 0.00 | 82 | 1007.7 |
| 20260906135027 | 18 | 239 | 1.6 | 4.8 | 0.00 | 0.00 | 0.00 | 82 | 1007.7 |
| 20260906134527 | 17 | 214 | 0.0 | 4.8 | 0.00 | 0.00 | 0.00 | 82 | 1007.6 |
| 20260906134026 | 17 | 221 | 1.6 | 4.8 | 0.00 | 0.00 | 0.00 | 83 | 1007.6 |
| 20260906133525 | 17 | 223 | 1.6 | 4.8 | 0.00 | 0.00 | 0.00 | 83 | 1007.6 |
| 20260906133026 | 16 | 232 | 0.0 | 4.8 | 0.00 | 0.00 | 0.00 | 84 | 1007.6 |
| 20260906132526 | 16 | 220 | 1.6 | 4.8 | 0.00 | 0.00 | 0.00 | 82 | 1007.7 |
| 20260906132026 | 17 | 217 | 0.0 | 4.8 | 0.00 | 0.00 | 0.00 | 82 | 1007.6 |
| 20260906131529 | 17 | 228 | 0.0 | 3.2 | 0.00 | 0.00 | 0.00 | 82 | 1007.7 |
| 20260906131025 | 17 | 227 | 0.0 | 4.8 | 0.00 | 0.00 | 0.00 | 82 | 1007.7 |
| 20260906130525 | 16 | 229 | 0.0 | 4.8 | 0.00 | 0.00 | 0.00 | 83 | 1007.7 |
| 20260906130025 | 16 | 205 | 0.0 | 3.2 | 0.00 | 0.00 | 0.00 | 83 | 1007.6 |
| 20260906125524 | 16 | 209 | 0.0 | 3.2 | 0.00 | 0.00 | 0.00 | 84 | 1007.5 |
| 20260906125024 | 16 | 213 | 0.0 | 1.6 | 0.00 | 0.00 | 0.00 | 85 | 1007.5 |
| 20260906124530 | 16 | 214 | 0.0 | 4.8 | 0.00 | 0.00 | 0.00 | 87 | 1007.5 |
| 20260906124024 | 15 | 213 | 1.6 | 4.8 | 0.00 | 0.00 | 0.00 | 88 | 1007.6 |
| 20260906123522 | 15 | 234 | 0.0 | 3.2 | 0.00 | 0.00 | 0.00 | 89 | 1007.5 |
| 20260906123033 | 15 | 226 | 0.0 | 3.2 | 0.00 | 0.00 | 0.00 | 89 | 1007.4 |
| 20260906122523 | 15 | 276 | 0.0 | 0.0 | 0.00 | 0.00 | 0.00 | 88 | 1007.3 |
| 20260906122023 | 15 | 278 | 0.0 | 0.0 | 0.00 | 0.00 | 0.00 | 87 | 1007.3 |
| 20260906121523 | 15 | 275 | 0.0 | 0.0 | 0.00 | 0.00 | 0.00 | 86 | 1007.3 |
| 20260906121021 | 15 | 279 | 0.0 | 0.0 | 0.00 | 0.00 | 0.00 | 86 | 1007.3 |
| 20260906120522 | 16 | 283 | 0.0 | 1.6 | 0.00 | 0.00 | 0.00 | 86 | 1007.3 |
| 20260906120020 | 16 | 282 | 0.0 | 1.6 | 0.00 | 0.00 | 0.00 | 88 | 1007.3 |
| 20260906115520 | 16 | 281 | 0.0 | 0.0 | 0.00 | 0.00 | 0.00 | 88 | 1007.3 |
| 20260906115019 | 16 | 284 | 0.0 | 1.6 | 0.00 | 0.00 | 0.00 | 88 | 1007.2 |
| 20260906114521 | 16 | 283 | 0.0 | 1.6 | 0.00 | 0.00 | 0.00 | 89 | 1007.3 |
| 20260906114020 | 16 | 288 | 0.0 | 1.6 | 0.00 | 0.00 | 0.00 | 89 | 1007.5 |
| 20260906113519 | 16 | 11 | 0.0 | 0.0 | 0.00 | 0.00 | 0.00 | 89 | 1007.5 |
| 20260906113016 | 16 | 11 | 0.0 | 0.0 | 0.00 | 0.00 | 0.00 | 88 | 1007.3 |
| 20260906112516 | 16 | 11 | 0.0 | 1.6 | 0.00 | 0.00 | 0.00 | 86 | 1007.1 |
| 20260906112017 | 16 | 11 | 0.0 | 1.6 | 0.00 | 0.00 | 0.00 | 87 | 1007.1 |
| 20260906111516 | 16 | 11 | 0.0 | 1.6 | 0.00 | 0.00 | 0.00 | 87 | 1007.2 |
| 20260906111016 | 16 | 11 | 0.0 | 0.0 | 0.00 | 0.00 | 0.00 | 87 | 1007.2 |
| 20260906110517 | 16 | 11 | 0.0 | 1.6 | 0.00 | 0.00 | 0.00 | 87 | 1007.2 |
| 20260906110017 | 16 | 11 | 0.0 | 1.6 | 0.00 | 0.00 | 0.00 | 86 | 1007.1 |
| 20260906105515 | 16 | 11 | 0.0 | 1.6 | 0.00 | 0.00 | 0.00 | 87 | 1007.0 |
| 20260906105016 | 16 | 11 | 0.0 | 0.0 | 0.00 | 0.00 | 0.00 | 86 | 1007.0 |
| 20260906104515 | 16 | 11 | 0.0 | 1.6 | 0.00 | 0.00 | 0.00 | 87 | 1006.9 |
| 20260906104014 | 16 | 11 | 0.0 | 1.6 | 0.00 | 0.00 | 0.00 | 85 | 1007.0 |
| 20260906103513 | 16 | 11 | 0.0 | 1.6 | 0.00 | 0.00 | 0.00 | 85 | 1007.1 |
| 20260906103031 | 16 | 11 | 0.0 | 1.6 | 0.00 | 0.00 | 0.00 | 85 | 1007.1 |
| 20260906102515 | 16 | 11 | 0.0 | 1.6 | 0.00 | 0.00 | 0.00 | 84 | 1007.0 |
| 20260906102011 | 16 | 11 | 0.0 | 1.6 | 0.00 | 0.00 | 0.00 | 84 | 1007.0 |
| 20260906101511 | 17 | 11 | 0.0 | 1.6 | 0.00 | 0.00 | 0.00 | 83 | 1007.0 |
| 20260906101013 | 17 | 11 | 0.0 | 1.6 | 0.00 | 0.00 | 0.00 | 83 | 1006.9 |
| 20260906100509 | 17 | 11 | 0.0 | 1.6 | 0.00 | 0.00 | 0.00 | 81 | 1007.0 |
| 20260906100021 | 17 | 11 | 0.0 | 1.6 | 0.00 | 0.00 | 0.00 | 81 | 1007.0 |
| 20260906095509 | 17 | 11 | 0.0 | 1.6 | 0.00 | 0.00 | 0.00 | 81 | 1007.1 |
| 20260906095007 | 17 | 11 | 0.0 | 0.0 | 0.00 | 0.00 | 0.00 | 81 | 1007.3 |
| 20260906094507 | 17 | 11 | 0.0 | 0.0 | 0.00 | 0.00 | 0.00 | 81 | 1007.1 |
| 20260906094007 | 17 | 11 | 0.0 | 0.0 | 0.00 | 0.00 | 0.00 | 81 | 1007.1 |
| 20260906093506 | 17 | 11 | 0.0 | 0.0 | 0.00 | 0.00 | 0.00 | 80 | 1007.1 |
| 20260906093004 | 17 | 14 | 0.0 | 0.0 | 0.00 | 0.00 | 0.00 | 79 | 1007.1 |
| 20260906092504 | 17 | 13 | 0.0 | 1.6 | 0.00 | 0.00 | 0.00 | 78 | 1007.0 |
| 20260906092004 | 17 | 12 | 0.0 | 3.2 | 0.00 | 0.00 | 0.00 | 78 | 1006.9 |
| 20260906091501 | 18 | 12 | 0.0 | 3.2 | 0.00 | 0.00 | 0.00 | 77 | 1006.8 |
| 20260906091001 | 18 | 12 | 0.0 | 3.2 | 0.00 | 0.00 | 0.00 | 77 | 1006.6 |
| 20260906090501 | 18 | 12 | 0.0 | 3.2 | 0.00 | 0.00 | 0.00 | 77 | 1006.5 |
| 20260906090001 | 18 | 12 | 0.0 | 3.2 | 0.00 | 0.00 | 0.00 | 77 | 1006.4 |
| 20260906085602 | 18 | 12 | 0.0 | 3.2 | 0.00 | 0.00 | 0.00 | 76 | 1006.3 |
| 20260906085059 | 18 | 348 | 0.0 | 4.8 | 0.00 | 0.00 | 0.00 | 77 | 1006.3 |
| 20260906084659 | 18 | 347 | 0.0 | 4.8 | 0.00 | 0.00 | 0.00 | 76 | 1006.2 |
| 20260906084102 | 18 | 238 | 0.0 | 4.8 | 0.00 | 0.00 | 0.00 | 76 | 1006.3 |
| 20260906083558 | 18 | 64 | 1.6 | 4.8 | 0.00 | 0.00 | 0.00 | 75 | 1006.2 |
| 20260906083100 | 18 | 346 | 0.0 | 6.4 | 0.00 | 0.00 | 0.00 | 74 | 1006.2 |
| 20260906082556 | 18 | 24 | 1.6 | 6.4 | 0.00 | 0.00 | 0.00 | 73 | 1006.3 |
| 20260906082056 | 18 | 12 | 0.0 | 4.8 | 0.00 | 0.00 | 0.00 | 73 | 1006.4 |
| 20260906081556 | 18 | 9 | 1.6 | 6.4 | 0.00 | 0.00 | 0.00 | 72 | 1006.5 |
| 20260906081056 | 18 | 26 | 1.6 | 9.7 | 0.00 | 0.00 | 0.00 | 70 | 1006.5 |
| 20260906080555 | 18 | 32 | 3.2 | 9.7 | 0.00 | 0.00 | 0.00 | 68 | 1006.5 |
| 20260906080056 | 18 | 32 | 1.6 | 6.4 | 0.00 | 0.00 | 0.00 | 66 | 1006.7 |
| 20260906075553 | 18 | 19 | 1.6 | 4.8 | 0.00 | 0.00 | 0.00 | 66 | 1006.7 |
| 20260906075052 | 18 | 9 | 0.0 | 4.8 | 0.00 | 0.00 | 0.00 | 65 | 1006.6 |
| 20260906074553 | 18 | 34 | 1.6 | 3.2 | 0.00 | 0.00 | 0.00 | 62 | 1006.6 |
| 20260906074050 | 18 | 333 | 0.0 | 4.8 | 0.00 | 0.00 | 0.00 | 63 | 1006.6 |
| 20260906073549 | 18 | 360 | 0.0 | 4.8 | 0.00 | 0.00 | 0.00 | 61 | 1006.5 |
| 20260906073048 | 19 | 233 | 0.0 | 4.8 | 0.00 | 0.00 | 0.00 | 60 | 1006.6 |
| 20260906072548 | 18 | 231 | 0.0 | 3.2 | 0.00 | 0.00 | 0.00 | 61 | 1006.5 |
| 20260906072049 | 18 | 244 | 0.0 | 3.2 | 0.00 | 0.00 | 0.00 | 61 | 1006.4 |
| 20260906071549 | 18 | 228 | 0.0 | 3.2 | 0.00 | 0.00 | 0.00 | 61 | 1006.5 |
| 20260906071048 | 18 | 236 | 0.0 | 1.6 | 0.00 | 0.00 | 0.00 | 63 | 1006.3 |
| 20260906070547 | 18 | 236 | 0.0 | 1.6 | 0.00 | 0.00 | 0.00 | 61 | 1006.4 |
| 20260906070046 | 18 | 236 | 0.0 | 1.6 | 0.00 | 0.00 | 0.00 | 63 | 1006.4 |
| 20260906065547 | 19 | 237 | 0.0 | 0.0 | 0.00 | 0.00 | 0.00 | 60 | 1006.5 |
| 20260906065043 | 19 | 236 | 0.0 | 0.0 | 0.00 | 0.00 | 0.00 | 61 | 1006.5 |
| 20260906064543 | 20 | 237 | 0.0 | 1.6 | 0.00 | 0.00 | 0.00 | 62 | 1006.5 |
| 20260906064042 | 20 | 246 | 0.0 | 1.6 | 0.00 | 0.00 | 0.00 | 60 | 1006.6 |
| 20260906063540 | 20 | 246 | 0.0 | 3.2 | 0.00 | 0.00 | 0.00 | 58 | 1006.5 |
| 20260906063040 | 20 | 252 | 0.0 | 3.2 | 0.00 | 0.00 | 0.00 | 57 | 1006.3 |
| 20260906062540 | 20 | 275 | 0.0 | 3.2 | 0.00 | 0.00 | 0.00 | 56 | 1006.1 |
| 20260906062038 | 20 | 313 | 0.0 | 3.2 | 0.00 | 0.00 | 0.00 | 56 | 1005.9 |
| 20260906061537 | 21 | 318 | 0.0 | 3.2 | 0.00 | 0.00 | 0.00 | 53 | 1005.9 |
| 20260906061039 | 21 | 267 | 0.0 | 1.6 | 0.00 | 0.00 | 0.00 | 52 | 1006.1 |
| 20260906060534 | 20 | 232 | 0.0 | 3.2 | 0.00 | 0.00 | 0.00 | 52 | 1006.2 |
| 20260906060033 | 20 | 232 | 1.6 | 3.2 | 0.00 | 0.00 | 0.00 | 52 | 1006.3 |
| 20260906055532 | 21 | 360 | 0.0 | 1.6 | 0.00 | 0.00 | 0.00 | 50 | 1006.4 |
| 20260906055033 | 21 | 360 | 0.0 | 3.2 | 0.00 | 0.00 | 0.00 | 49 | 1006.6 |
| 20260906054538 | 21 | 280 | 1.6 | 3.2 | 0.00 | 0.00 | 0.00 | 48 | 1006.6 |
| 20260906054032 | 21 | 277 | 0.0 | 1.6 | 0.00 | 0.00 | 0.00 | 47 | 1006.5 |
| 20260906053531 | 21 | 274 | 0.0 | 4.8 | 0.00 | 0.00 | 0.00 | 48 | 1006.5 |
| 20260906053031 | 21 | 275 | 0.0 | 4.8 | 0.00 | 0.00 | 0.00 | 47 | 1006.6 |
| 20260906052531 | 21 | 267 | 0.0 | 1.6 | 0.00 | 0.00 | 0.00 | 48 | 1006.7 |
| 20260906052031 | 21 | 246 | 0.0 | 1.6 | 0.00 | 0.00 | 0.00 | 49 | 1006.9 |
| 20260906051530 | 21 | 274 | 0.0 | 1.6 | 0.00 | 0.00 | 0.00 | 48 | 1006.8 |
| 20260906051031 | 22 | 271 | 0.0 | 3.2 | 0.00 | 0.00 | 0.00 | 47 | 1006.6 |
| 20260906050531 | 22 | 267 | 0.0 | 4.8 | 0.00 | 0.00 | 0.00 | 47 | 1006.5 |
| 20260906050029 | 21 | 271 | 0.0 | 4.8 | 0.00 | 0.00 | 0.00 | 47 | 1006.3 |
| 20260906045532 | 21 | 278 | 0.0 | 4.8 | 0.00 | 0.00 | 0.00 | 47 | 1006.4 |
| 20260906045030 | 21 | 263 | 0.0 | 4.8 | 0.00 | 0.00 | 0.00 | 47 | 1006.4 |
| 20260906044528 | 21 | 267 | 1.6 | 3.2 | 0.00 | 0.00 | 0.00 | 47 | 1006.3 |
| 20260906044029 | 21 | 335 | 0.0 | 1.6 | 0.00 | 0.00 | 0.00 | 46 | 1006.0 |
| 20260906043526 | 22 | 335 | 0.0 | 1.6 | 0.00 | 0.00 | 0.00 | 46 | 1005.7 |
| 20260906043026 | 22 | 336 | 0.0 | 1.6 | 0.00 | 0.00 | 0.00 | 46 | 1005.6 |
| 20260906042527 | 22 | 338 | 0.0 | 4.8 | 0.00 | 0.00 | 0.00 | 45 | 1005.6 |
| 20260906042126 | 22 | 338 | 1.6 | 6.4 | 0.00 | 0.00 | 0.00 | 45 | 1005.5 |
| 20260906041526 | 22 | 360 | 1.6 | 6.4 | 0.00 | 0.00 | 0.00 | 45 | 1005.5 |
| 20260906041025 | 22 | 312 | 0.0 | 4.8 | 0.00 | 0.00 | 0.00 | 45 | 1005.4 |
| 20260906040524 | 22 | 150 | 1.6 | 4.8 | 0.00 | 0.00 | 0.00 | 45 | 1005.5 |
| 20260906040025 | 21 | 170 | 0.0 | 4.8 | 0.00 | 0.00 | 0.00 | 45 | 1005.2 |
| 20260906035524 | 22 | 176 | 0.0 | 3.2 | 0.00 | 0.00 | 0.00 | 44 | 1005.2 |
| 20260906035025 | 22 | 178 | 0.0 | 1.6 | 0.00 | 0.00 | 0.00 | 43 | 1005.2 |
| 20260906034524 | 22 | 168 | 0.0 | 1.6 | 0.00 | 0.00 | 0.00 | 43 | 1005.3 |
| 20260906034024 | 22 | 154 | 0.0 | 4.8 | 0.00 | 0.00 | 0.00 | 42 | 1005.2 |
| 20260906033523 | 22 | 121 | 0.0 | 4.8 | 0.00 | 0.00 | 0.00 | 42 | 1005.1 |
| 20260906033023 | 23 | 273 | 0.0 | 3.2 | 0.00 | 0.00 | 0.00 | 42 | 1005.0 |
| 20260906032525 | 23 | 279 | 0.0 | 3.2 | 0.00 | 0.00 | 0.00 | 41 | 1005.0 |
| 20260906032026 | 23 | 360 | 1.6 | 3.2 | 0.00 | 0.00 | 0.00 | 41 | 1004.8 |
| 20260906031523 | 23 | 360 | 0.0 | 1.6 | 0.00 | 0.00 | 0.00 | 42 | 1004.7 |
| 20260906031025 | 23 | 360 | 0.0 | 3.2 | 0.00 | 0.00 | 0.00 | 42 | 1004.6 |
| 20260906030522 | 23 | 360 | 0.0 | 6.4 | 0.00 | 0.00 | 0.00 | 40 | 1004.5 |
| 20260906030021 | 23 | 360 | 4.8 | 6.4 | 0.00 | 0.00 | 0.00 | 40 | 1004.4 |
| 20260906025521 | 24 | 360 | 0.0 | 3.2 | 0.00 | 0.00 | 0.00 | 39 | 1004.2 |
| 20260906025020 | 24 | 360 | 0.0 | 8.0 | 0.00 | 0.00 | 0.00 | 38 | 1004.2 |
| 20260906024519 | 24 | 360 | 3.2 | 8.0 | 0.00 | 0.00 | 0.00 | 38 | 1004.3 |
| 20260906024019 | 25 | 360 | 0.0 | 6.4 | 0.00 | 0.00 | 0.00 | 39 | 1004.2 |
| 20260906023519 | 25 | 360 | 1.6 | 14.5 | 0.00 | 0.00 | 0.00 | 38 | 1004.3 |
| 20260906023018 | 25 | 360 | 6.4 | 14.5 | 0.00 | 0.00 | 0.00 | 38 | 1004.5 |
| 20260906022518 | 25 | 360 | 0.0 | 1.6 | 0.00 | 0.00 | 0.00 | 36 | 1004.3 |
| 20260906022018 | 25 | 360 | 0.0 | 1.6 | 0.00 | 0.00 | 0.00 | 36 | 1004.3 |
| 20260906021533 | 25 | 360 | 0.0 | 4.8 | 0.00 | 0.00 | 0.00 | 35 | 1004.1 |
| 20260906021018 | 26 | 360 | 1.6 | 4.8 | 0.00 | 0.00 | 0.00 | 35 | 1004.0 |
| 20260906020522 | 26 | 360 | 0.0 | 3.2 | 0.00 | 0.00 | 0.00 | 34 | 1003.9 |
| 20260906020020 | 26 | 360 | 0.0 | 3.2 | 0.00 | 0.00 | 0.00 | 34 | 1004.0 |
| 20260906015517 | 26 | 360 | 0.0 | 3.2 | 0.00 | 0.00 | 0.00 | 34 | 1003.8 |
| 20260906015017 | 26 | 231 | 0.0 | 1.6 | 0.00 | 0.00 | 0.00 | 34 | 1003.7 |
| 20260906014520 | 26 | 225 | 0.0 | 1.6 | 0.00 | 0.00 | 0.00 | 34 | 1003.7 |
| 20260906014020 | 26 | 223 | 0.0 | 3.2 | 0.00 | 0.00 | 0.00 | 34 | 1003.6 |
| 20260906013516 | 27 | 173 | 0.0 | 3.2 | 0.00 | 0.00 | 0.00 | 33 | 1003.6 |
| 20260906013032 | 27 | 144 | 0.0 | 3.2 | 0.00 | 0.00 | 0.00 | 33 | 1003.6 |
| 20260906012519 | 27 | 148 | 0.0 | 3.2 | 0.00 | 0.00 | 0.00 | 33 | 1003.6 |
| 20260906012017 | 27 | 360 | 0.0 | 3.2 | 0.00 | 0.00 | 0.00 | 33 | 1003.6 |
| 20260906011516 | 28 | 360 | 0.0 | 3.2 | 0.00 | 0.00 | 0.00 | 33 | 1003.5 |
| 20260906011016 | 28 | 360 | 0.0 | 3.2 | 0.00 | 0.00 | 0.00 | 32 | 1003.5 |
| 20260906010516 | 28 | 360 | 0.0 | 3.2 | 0.00 | 0.00 | 0.00 | 31 | 1003.6 |
| 20260906010018 | 28 | 23 | 0.0 | 3.2 | 0.00 | 0.00 | 0.00 | 31 | 1003.5 |
| 20260906005516 | 28 | 22 | 0.0 | 4.8 | 0.00 | 0.00 | 0.00 | 30 | 1003.5 |
| 20260906005015 | 29 | 19 | 1.6 | 4.8 | 0.00 | 0.00 | 0.00 | 29 | 1003.4 |
| 20260906004515 | 29 | 17 | 0.0 | 6.4 | 0.00 | 0.00 | 0.00 | 29 | 1003.4 |
| 20260906004014 | 29 | 16 | 1.6 | 6.4 | 0.00 | 0.00 | 0.00 | 29 | 1003.3 |
| 20260906003514 | 30 | 17 | 1.6 | 8.0 | 0.00 | 0.00 | 0.00 | 29 | 1003.3 |
| 20260906003020 | 30 | 15 | 3.2 | 8.0 | 0.00 | 0.00 | 0.00 | 29 | 1003.4 |
| 20260906002514 | 30 | 15 | 1.6 | 6.4 | 0.00 | 0.00 | 0.00 | 29 | 1003.3 |
| 20260906002014 | 30 | 42 | 0.0 | 4.8 | 0.00 | 0.00 | 0.00 | 29 | 1003.3 |
| 20260906001515 | 30 | 28 | 1.6 | 6.4 | 0.00 | 0.00 | 0.00 | 28 | 1003.3 |
| 20260906001013 | 30 | 20 | 1.6 | 6.4 | 0.00 | 0.00 | 0.00 | 27 | 1003.2 |
| 20260906000513 | 31 | 32 | 0.0 | 3.2 | 0.00 | 0.00 | 0.00 | 28 | 1003.3 |
| 20260906000014 | 31 | 17 | 0.0 | 4.8 | 0.00 | 0.00 | 0.00 | 27 | 1003.2 |
| 20260905235513 | 31 | 15 | 1.6 | 4.8 | 0.00 | 0.00 | 0.00 | 27 | 1003.2 |
| 20260905235013 | 31 | 15 | 0.0 | 3.2 | 0.00 | 0.00 | 0.00 | 27 | 1003.2 |
| 20260905234613 | 31 | 14 | 0.0 | 3.2 | 0.00 | 0.00 | 0.00 | 26 | 1003.0 |
| 20260905234014 | 32 | 17 | 1.6 | 3.2 | 0.00 | 0.00 | 0.00 | 25 | 1003.1 |
| 20260905233515 | 32 | 16 | 0.0 | 3.2 | 0.00 | 0.00 | 0.00 | 25 | 1003.0 |
| 20260905233017 | 32 | 22 | 0.0 | 3.2 | 0.00 | 0.00 | 0.00 | 24 | 1003.1 |
| 20260905232511 | 33 | 226 | 0.0 | 3.2 | 0.00 | 0.00 | 0.00 | 23 | 1003.1 |
| 20260905232012 | 33 | 262 | 0.0 | 3.2 | 0.00 | 0.00 | 0.00 | 22 | 1003.0 |
| 20260905231512 | 33 | 236 | 0.0 | 6.4 | 0.00 | 0.00 | 0.00 | 22 | 1003.1 |
| 20260905231011 | 33 | 235 | 1.6 | 6.4 | 0.00 | 0.00 | 0.00 | 22 | 1003.0 |
| 20260905230512 | 34 | 230 | 0.0 | 3.2 | 0.00 | 0.00 | 0.00 | 19 | 1003.0 |
| 20260905230011 | 34 | 230 | 0.0 | 4.8 | 0.00 | 0.00 | 0.00 | 21 | 1002.9 |
| 20260905225511 | 34 | 214 | 1.6 | 6.4 | 0.00 | 0.00 | 0.00 | 19 | 1002.8 |
| 20260905225012 | 34 | 244 | 1.6 | 6.4 | 0.00 | 0.00 | 0.00 | 21 | 1002.8 |
| 20260905224515 | 34 | 229 | 0.0 | 4.8 | 0.00 | 0.00 | 0.00 | 21 | 1002.9 |
| 20260905224010 | 34 | 248 | 1.6 | 4.8 | 0.00 | 0.00 | 0.00 | 21 | 1002.9 |
| 20260905223512 | 33 | 360 | 0.0 | 8.0 | 0.00 | 0.00 | 0.00 | 18 | 1002.9 |
| 20260905223008 | 34 | 14 | 4.8 | 8.0 | 0.00 | 0.00 | 0.00 | 19 | 1003.0 |
| 20260905222509 | 34 | 57 | 3.2 | 12.9 | 0.00 | 0.00 | 0.00 | 20 | 1002.9 |
| 20260905222007 | 34 | 5 | 1.6 | 12.9 | 0.00 | 0.00 | 0.00 | 20 | 1003.0 |
| 20260905221511 | 34 | 11 | 4.8 | 12.9 | 0.00 | 0.00 | 0.00 | 19 | 1002.9 |
| 20260905221008 | 35 | 17 | 3.2 | 12.9 | 0.00 | 0.00 | 0.00 | 21 | 1002.9 |
| 20260905220505 | 35 | 25 | 3.2 | 8.0 | 0.00 | 0.00 | 0.00 | 20 | 1003.2 |
| 20260905220004 | 34 | 235 | 0.0 | 14.5 | 0.00 | 0.00 | 0.00 | 22 | 1003.2 |
| 20260905215504 | 34 | 19 | 6.4 | 14.5 | 0.00 | 0.00 | 0.00 | 20 | 1003.2 |